Printer-friendly version

IAU Minor Planet Center

Minor Planet Center

MPEC 2005-F16 : 2005 FG

The following Minor Planet Electronic Circular may be linked-to from your own Web pages, but must not otherwise be redistributed electronically.


Read MPEC 2005-F15 Read MPEC 2005-F17


M.P.E.C. 2005-F16                                Issued 2005 Mar. 17, 12:10 UT

     The Minor Planet Electronic Circulars contain information on unusual
         minor planets and routine data on comets.  They are published
   on behalf of Commission 20 of the International Astronomical Union by the
          Minor Planet Center, Smithsonian Astrophysical Observatory,
                          Cambridge, MA 02138, U.S.A.

                  Supported in part by the Brinson Foundation
             Prepared using the Tamkin Foundation Computer Network

                              MPC@CFA.HARVARD.EDU
          URL http://cfa-www.harvard.edu/iau/mpc.html  ISSN 1523-6714

                                    2005 FG

Observations:
     K05F00G  C2005 03 12.24960 12 14 23.42 +01 05 42.9          20.1 V EF016691
     K05F00G  C2005 03 12.29500 12 14 17.99 +01 04 34.9          20.2 V EF016691
     K05F00G  C2005 03 12.32953 12 14 13.74 +01 03 43.0          20.0 V EF016691
     K05F00G* C2005 03 16.38976 12 06 22.76 -00 57 57.8          19.5 V EF016691
     K05F00G  C2005 03 16.41611 12 06 18.14 -00 58 54.2          19.5 V EF016691
     K05F00G  C2005 03 16.44126 12 06 13.87 -00 59 47.8          20.4 V EF016691
     K05F00G  C2005 03 16.64736 12 05 45.21 -01 05 06.7          18.9 R EF016474
     K05F00G  C2005 03 16.64852 12 05 45.01 -01 05 08.9          19.0 R EF016474
     K05F00G  C2005 03 16.65002 12 05 44.77 -01 05 12.6          18.9 R EF016474
     K05F00G  C2005 03 17.31873 12 04 08.28 -01 32 33.6          19.8 R EF016854
     K05F00G  C2005 03 17.32543 12 04 06.95 -01 32 48.9          19.8 R EF016854
     K05F00G  C2005 03 17.33213 12 04 05.77 -01 33 04.2          19.9 R EF016854

Observer details:
474 Mount John Observatory, Lake Tekapo.  Observer A. C. Gilmore.  Measurer
    P. M. Kilmartin.  1.0-m f/7.7 reflector + CCD.
691 Steward Observatory, Kitt Peak.  Observers J. V. Scotti, A. S. Descour.
    0.9-m f/3 reflector + CCD.
854 Sabino Canyon Observatory, Tucson.  Observer J. E. McGaha.  0.36-m f/10.0
    Schmidt-Cassegrain + CCD.

Orbital elements:
2005 FG
Epoch 2005 Mar. 11.0 TT = JDT 2453440.5                 MPC
M 287.74541              (2000.0)            P               Q
n   0.83000989     Peri.  272.33907     -0.02835961     +0.99958647
a   1.1213655      Node   356.02647     -0.88767916     -0.02737130
e   0.2124905      Incl.    3.93489     -0.45958835     -0.00881430
P   1.19           H   24.6           G   0.15
From 12 observations 2005 Mar. 12-17.

Ephemeris:
2005 FG                  a,e,i = 1.12, 0.21, 4                   q = 0.8831
Date    TT    R. A. (2000) Decl.     Delta      r     Elong.  Phase     V
2005 03 11    12 16.15   +01 36.1    0.107    1.098   167.0    11.7    20.7
2005 03 13    12 13.14   +00 47.2    0.0985   1.091   169.5     9.5    20.4
2005 03 15    12 09.45   -00 10.5    0.0902   1.084   172.2     7.2    20.1
2005 03 17    12 04.94   -01 19.3    0.0822   1.077   174.7     4.9    19.7
2005 03 19    11 59.42   -02 42.3    0.0744   1.070   176.4     3.3    19.4
2005 03 21    11 52.61   -04 23.7    0.0668   1.063   175.2     4.5    19.3
2005 03 23    11 44.11   -06 29.1    0.0596   1.056   171.7     7.8    19.1
2005 03 25    11 33.33   -09 06.4    0.0527   1.049   167.1    12.3    19.0
2005 03 27    11 19.30   -12 26.3    0.0462   1.042   161.3    17.9    18.9
2005 03 29    11 00.53   -16 42.8    0.0401   1.035   154.1    24.9    18.8
2005 03 31    10 34.54   -22 10.3    0.0348   1.028   145.1    33.8    18.8
2005 04 02    09 57.36   -28 53.6    0.0304   1.021   133.6    45.2    18.8
2005 04 04    09 03.46   -36 18.5    0.0275   1.014   119.5    59.2    19.0
2005 04 06    07 49.26   -42 35.2    0.0263   1.007   103.4    75.1    19.3
2005 04 08    06 23.06   -45 21.6    0.0272   1.000    87.4    91.0    20.0
2005 04 10    05 05.29   -44 17.3    0.0299   0.994    73.6   104.8    20.8
2005 04 12    04 07.42   -41 10.4    0.0339   0.987    62.6   115.6    21.8
2005 04 14    03 27.27   -37 37.7    0.0390   0.981    54.5   123.7    22.6
2005 04 16    02 59.25   -34 21.0    0.0447   0.975    48.5   129.5    23.5
2005 04 18    02 39.10   -31 30.4    0.0508   0.968    44.3   133.6    24.1
2005 04 20    02 24.10   -29 04.4    0.0573   0.962    41.3   136.5    24.7

Timothy B. Spahr             (C) Copyright 2005 MPC           M.P.E.C. 2005-F16

Read MPEC 2005-F15 Read MPEC 2005-F17


Our Web policy. Index to the CBAT/MPC/ICQ pages.


Valid HTML 4.01!